| time (UTC) | temp F | wind direction | speed MPH | gust MPH | rain 1hr in | rain 24hr in | rain mn in | humidity % | barometer mb |
| 20260509212504 | 64 | 187 | 1.0 | 6.0 | 0.00 | 0.00 | 0.00 | 54 | 1004.1 |
| 20260509212004 | 65 | 182 | 1.0 | 6.0 | 0.00 | 0.00 | 0.00 | 53 | 1004.1 |
| 20260509211504 | 66 | 180 | 1.0 | 3.0 | 0.00 | 0.00 | 0.00 | 52 | 1004.0 |
| 20260509211004 | 66 | 193 | 1.0 | 6.0 | 0.00 | 0.00 | 0.00 | 51 | 1004.2 |
| 20260509210504 | 65 | 186 | 1.0 | 6.0 | 0.00 | 0.00 | 0.00 | 53 | 1004.3 |
| 20260509210007 | 65 | 173 | 1.0 | 6.0 | 0.00 | 0.00 | 0.00 | 52 | 1004.4 |
| 20260509205504 | 66 | 167 | 1.0 | 6.0 | 0.00 | 0.00 | 0.00 | 50 | 1004.4 |
| 20260509205005 | 66 | 165 | 1.0 | 4.0 | 0.00 | 0.00 | 0.00 | 51 | 1004.5 |
| 20260509204504 | 66 | 186 | 1.0 | 6.0 | 0.00 | 0.00 | 0.00 | 51 | 1004.5 |
| 20260509204004 | 64 | 202 | 2.0 | 6.0 | 0.00 | 0.00 | 0.00 | 54 | 1004.4 |
| 20260509203507 | 66 | 237 | 2.0 | 6.0 | 0.00 | 0.00 | 0.00 | 51 | 1004.3 |
| 20260509203004 | 66 | 246 | 1.0 | 4.0 | 0.00 | 0.00 | 0.00 | 50 | 1004.4 |
| 20260509202507 | 66 | 184 | 1.0 | 4.0 | 0.00 | 0.00 | 0.00 | 52 | 1004.3 |
| 20260509202007 | 66 | 201 | 1.0 | 4.0 | 0.00 | 0.00 | 0.00 | 51 | 1004.5 |
| 20260509201504 | 66 | 198 | 2.0 | 4.0 | 0.00 | 0.00 | 0.00 | 51 | 1004.8 |
| 20260509201004 | 66 | 191 | 2.0 | 4.0 | 0.00 | 0.00 | 0.00 | 53 | 1004.7 |
| 20260509200504 | 66 | 174 | 2.0 | 8.0 | 0.00 | 0.00 | 0.00 | 52 | 1004.7 |
| 20260509200005 | 66 | 205 | 2.0 | 8.0 | 0.00 | 0.00 | 0.00 | 51 | 1005.0 |
| 20260509195504 | 66 | 193 | 2.0 | 7.0 | 0.00 | 0.00 | 0.00 | 52 | 1004.8 |
| 20260509195004 | 66 | 176 | 2.0 | 7.0 | 0.00 | 0.00 | 0.00 | 51 | 1004.6 |
| 20260509194504 | 66 | 177 | 2.0 | 7.0 | 0.00 | 0.00 | 0.00 | 53 | 1004.8 |
| 20260509194004 | 66 | 211 | 2.0 | 6.0 | 0.00 | 0.00 | 0.00 | 51 | 1004.8 |
| 20260509193504 | 66 | 229 | 2.0 | 7.0 | 0.00 | 0.00 | 0.00 | 51 | 1005.0 |
| 20260509193004 | 66 | 206 | 2.0 | 7.0 | 0.00 | 0.00 | 0.00 | 51 | 1005.0 |
| 20260509192504 | 67 | 157 | 2.0 | 9.0 | 0.00 | 0.00 | 0.00 | 51 | 1004.9 |
| 20260509192004 | 67 | 176 | 2.0 | 9.0 | 0.00 | 0.00 | 0.00 | 49 | 1005.0 |
| 20260509191504 | 67 | 207 | 2.0 | 8.0 | 0.00 | 0.00 | 0.00 | 50 | 1005.2 |
| 20260509191005 | 67 | 196 | 2.0 | 8.0 | 0.00 | 0.00 | 0.00 | 51 | 1005.1 |
| 20260509190504 | 67 | 193 | 2.0 | 6.0 | 0.00 | 0.00 | 0.00 | 49 | 1005.2 |
| 20260509190005 | 68 | 181 | 2.0 | 6.0 | 0.00 | 0.00 | 0.00 | 47 | 1005.3 |
| 20260509185504 | 68 | 156 | 1.0 | 3.0 | 0.00 | 0.00 | 0.00 | 49 | 1005.3 |
| 20260509185005 | 67 | 179 | 1.0 | 4.0 | 0.00 | 0.00 | 0.00 | 46 | 1005.3 |
| 20260509184505 | 67 | 177 | 2.0 | 6.0 | 0.00 | 0.00 | 0.00 | 48 | 1005.3 |
| 20260509184004 | 67 | 175 | 1.0 | 6.0 | 0.00 | 0.00 | 0.00 | 47 | 1005.4 |
| 20260509183504 | 67 | 192 | 2.0 | 6.0 | 0.00 | 0.00 | 0.00 | 48 | 1005.8 |
| 20260509183004 | 67 | 198 | 2.0 | 6.0 | 0.00 | 0.00 | 0.00 | 48 | 1005.8 |
| 20260509182504 | 67 | 156 | 1.0 | 6.0 | 0.00 | 0.00 | 0.00 | 49 | 1005.8 |
| 20260509182008 | 66 | 156 | 2.0 | 6.0 | 0.00 | 0.00 | 0.00 | 48 | 1005.9 |
| 20260509181504 | 66 | 206 | 2.0 | 6.0 | 0.00 | 0.00 | 0.00 | 49 | 1005.7 |
| 20260509181005 | 66 | 206 | 2.0 | 7.0 | 0.00 | 0.00 | 0.00 | 49 | 1005.9 |
| 20260509180504 | 66 | 202 | 2.0 | 7.0 | 0.00 | 0.00 | 0.00 | 50 | 1006.0 |
| 20260509180004 | 65 | 214 | 2.0 | 7.0 | 0.00 | 0.00 | 0.00 | 49 | 1005.9 |
| 20260509175504 | 66 | 210 | 2.0 | 7.0 | 0.00 | 0.00 | 0.00 | 49 | 1005.8 |
| 20260509175004 | 65 | 227 | 2.0 | 6.0 | 0.00 | 0.00 | 0.00 | 51 | 1006.2 |
| 20260509174505 | 65 | 196 | 2.0 | 7.0 | 0.00 | 0.00 | 0.00 | 50 | 1006.0 |
| 20260509174004 | 65 | 179 | 2.0 | 7.0 | 0.00 | 0.00 | 0.00 | 51 | 1006.1 |
| 20260509173504 | 65 | 217 | 1.0 | 9.0 | 0.00 | 0.00 | 0.00 | 54 | 1005.9 |
| 20260509173004 | 66 | 241 | 2.0 | 9.0 | 0.00 | 0.00 | 0.00 | 51 | 1006.0 |
| 20260509172507 | 65 | 224 | 2.0 | 8.0 | 0.00 | 0.00 | 0.00 | 54 | 1006.4 |
| 20260509172004 | 65 | 211 | 2.0 | 9.0 | 0.00 | 0.00 | 0.00 | 52 | 1006.1 |
| 20260509171504 | 64 | 214 | 2.0 | 9.0 | 0.00 | 0.00 | 0.00 | 54 | 1006.2 |
| 20260509171004 | 65 | 198 | 2.0 | 7.0 | 0.00 | 0.00 | 0.00 | 51 | 1006.4 |
| 20260509170504 | 65 | 194 | 2.0 | 7.0 | 0.00 | 0.00 | 0.00 | 49 | 1006.4 |
| 20260509170004 | 64 | 184 | 2.0 | 4.0 | 0.00 | 0.00 | 0.00 | 51 | 1006.4 |
| 20260509165505 | 65 | 176 | 2.0 | 4.0 | 0.00 | 0.00 | 0.00 | 49 | 1006.4 |
| 20260509165004 | 65 | 174 | 2.0 | 6.0 | 0.00 | 0.00 | 0.00 | 52 | 1006.8 |
| 20260509164505 | 65 | 176 | 2.0 | 6.0 | 0.00 | 0.00 | 0.00 | 49 | 1006.6 |
| 20260509164004 | 66 | 170 | 1.0 | 4.0 | 0.00 | 0.00 | 0.00 | 49 | 1006.9 |
| 20260509163504 | 66 | 177 | 1.0 | 4.0 | 0.00 | 0.00 | 0.00 | 50 | 1007.0 |
| 20260509163004 | 65 | 192 | 2.0 | 4.0 | 0.00 | 0.00 | 0.00 | 50 | 1006.9 |
| 20260509162504 | 65 | 167 | 2.0 | 4.0 | 0.00 | 0.00 | 0.00 | 48 | 1007.0 |
| 20260509162004 | 65 | 166 | 1.0 | 3.0 | 0.00 | 0.00 | 0.00 | 48 | 1007.0 |
| 20260509161504 | 65 | 183 | 1.0 | 3.0 | 0.00 | 0.00 | 0.00 | 50 | 1007.0 |
| 20260509161004 | 64 | 191 | 1.0 | 6.0 | 0.00 | 0.00 | 0.00 | 51 | 1007.2 |
| 20260509160507 | 64 | 201 | 1.0 | 6.0 | 0.00 | 0.00 | 0.00 | 49 | 1007.3 |
| 20260509160004 | 64 | 195 | 1.0 | 6.0 | 0.00 | 0.00 | 0.00 | 50 | 1007.3 |
| 20260509155504 | 63 | 212 | 2.0 | 6.0 | 0.00 | 0.00 | 0.00 | 49 | 1007.5 |
| 20260509155004 | 64 | 207 | 1.0 | 4.0 | 0.00 | 0.00 | 0.00 | 49 | 1007.5 |
| 20260509154504 | 64 | 197 | 1.0 | 3.0 | 0.00 | 0.00 | 0.00 | 49 | 1007.7 |
| 20260509154005 | 63 | 162 | 2.0 | 6.0 | 0.00 | 0.00 | 0.00 | 52 | 1007.8 |
| 20260509153508 | 62 | 152 | 2.0 | 6.0 | 0.00 | 0.00 | 0.00 | 50 | 1007.8 |
| 20260509153004 | 62 | 144 | 2.0 | 6.0 | 0.00 | 0.00 | 0.00 | 51 | 1007.8 |
| 20260509152504 | 63 | 204 | 2.0 | 6.0 | 0.00 | 0.00 | 0.00 | 49 | 1007.9 |
| 20260509152004 | 63 | 200 | 1.0 | 6.0 | 0.00 | 0.00 | 0.00 | 48 | 1008.2 |
| 20260509151504 | 62 | 176 | 2.0 | 6.0 | 0.00 | 0.00 | 0.00 | 46 | 1008.2 |
| 20260509151004 | 62 | 180 | 1.0 | 6.0 | 0.00 | 0.00 | 0.00 | 43 | 1008.4 |
| 20260509150504 | 63 | 226 | 1.0 | 4.0 | 0.00 | 0.00 | 0.00 | 42 | 1007.9 |
| 20260509150007 | 61 | 230 | 2.0 | 4.0 | 0.00 | 0.00 | 0.00 | 45 | 1008.2 |
| 20260509145507 | 61 | 199 | 1.0 | 4.0 | 0.00 | 0.00 | 0.00 | 43 | 1008.3 |
| 20260509145007 | 61 | 146 | 1.0 | 2.0 | 0.00 | 0.00 | 0.00 | 43 | 1008.3 |
| 20260509144504 | 60 | 144 | 1.0 | 2.0 | 0.00 | 0.00 | 0.00 | 42 | 1008.2 |
| 20260509144004 | 59 | 144 | 1.0 | 2.0 | 0.00 | 0.00 | 0.00 | 42 | 1008.2 |
| 20260509143504 | 59 | 142 | 1.0 | 2.0 | 0.00 | 0.00 | 0.00 | 43 | 1008.3 |
| 20260509143004 | 58 | 125 | 1.0 | 2.0 | 0.00 | 0.00 | 0.00 | 42 | 1008.5 |
| 20260509142504 | 58 | 117 | 1.0 | 3.0 | 0.00 | 0.00 | 0.00 | 45 | 1008.6 |
| 20260509142004 | 57 | 118 | 1.0 | 3.0 | 0.00 | 0.00 | 0.00 | 45 | 1008.3 |
| 20260509141504 | 56 | 77 | 1.0 | 3.0 | 0.00 | 0.00 | 0.00 | 46 | 1008.4 |
| 20260509141004 | 56 | 69 | 1.0 | 3.0 | 0.00 | 0.00 | 0.00 | 45 | 1008.5 |
| 20260509140504 | 56 | 84 | 1.0 | 3.0 | 0.00 | 0.00 | 0.00 | 45 | 1008.4 |
| 20260509140005 | 56 | 86 | 1.0 | 2.0 | 0.00 | 0.00 | 0.00 | 46 | 1008.5 |
| 20260509135504 | 56 | 88 | 1.0 | 2.0 | 0.00 | 0.00 | 0.00 | 46 | 1008.5 |
| 20260509135004 | 56 | 93 | 1.0 | 3.0 | 0.00 | 0.00 | 0.00 | 45 | 1008.6 |
| 20260509134504 | 55 | 93 | 1.0 | 3.0 | 0.00 | 0.00 | 0.00 | 47 | 1008.7 |
| 20260509134004 | 54 | 106 | 1.0 | 2.0 | 0.00 | 0.00 | 0.00 | 48 | 1008.8 |
| 20260509133504 | 53 | 107 | 1.0 | 2.0 | 0.00 | 0.00 | 0.00 | 50 | 1008.8 |
| 20260509133005 | 53 | 107 | 0.0 | 2.0 | 0.00 | 0.00 | 0.00 | 50 | 1008.8 |
| 20260509132504 | 52 | 106 | 0.0 | 2.0 | 0.00 | 0.00 | 0.00 | 50 | 1008.9 |
| 20260509132004 | 52 | 106 | 0.0 | 2.0 | 0.00 | 0.00 | 0.00 | 51 | 1008.9 |
| 20260509131504 | 52 | 106 | 0.0 | 2.0 | 0.00 | 0.00 | 0.00 | 51 | 1009.1 |
| 20260509131004 | 52 | 107 | 0.0 | 2.0 | 0.00 | 0.00 | 0.00 | 52 | 1009.0 |
| 20260509130504 | 52 | 107 | 0.0 | 2.0 | 0.00 | 0.00 | 0.00 | 50 | 1009.1 |
| 20260509130005 | 53 | 108 | 0.0 | 1.0 | 0.00 | 0.00 | 0.00 | 51 | 1009.0 |
| 20260509125504 | 53 | 108 | 0.0 | 1.0 | 0.00 | 0.00 | 0.00 | 50 | 1008.9 |
| 20260509125004 | 52 | 108 | 0.0 | 2.0 | 0.00 | 0.00 | 0.00 | 50 | 1008.9 |
| 20260509124507 | 52 | 107 | 1.0 | 2.0 | 0.00 | 0.00 | 0.00 | 52 | 1008.8 |
| 20260509124004 | 52 | 107 | 0.0 | 2.0 | 0.00 | 0.00 | 0.00 | 51 | 1009.0 |
| 20260509123504 | 51 | 107 | 0.0 | 1.0 | 0.00 | 0.00 | 0.00 | 52 | 1008.8 |
| 20260509123004 | 50 | 110 | 0.0 | 2.0 | 0.00 | 0.00 | 0.00 | 54 | 1009.1 |
| 20260509122504 | 50 | 115 | 0.0 | 2.0 | 0.00 | 0.00 | 0.00 | 54 | 1008.9 |
| 20260509122004 | 50 | 120 | 0.0 | 2.0 | 0.00 | 0.00 | 0.00 | 53 | 1009.2 |
| 20260509121504 | 52 | 126 | 0.0 | 1.0 | 0.00 | 0.00 | 0.00 | 51 | 1009.2 |
| 20260509121004 | 51 | 129 | 1.0 | 2.0 | 0.00 | 0.00 | 0.00 | 52 | 1009.1 |
| 20260509120504 | 50 | 140 | 1.0 | 2.0 | 0.00 | 0.00 | 0.00 | 52 | 1009.2 |
| 20260509120004 | 50 | 159 | 1.0 | 3.0 | 0.00 | 0.00 | 0.00 | 54 | 1009.3 |
| 20260509115504 | 51 | 152 | 0.0 | 3.0 | 0.00 | 0.00 | 0.00 | 51 | 1009.4 |
| 20260509115004 | 51 | 115 | 0.0 | 1.0 | 0.00 | 0.00 | 0.00 | 49 | 1009.5 |
| 20260509114504 | 50 | 115 | 0.0 | 1.0 | 0.00 | 0.00 | 0.00 | 50 | 1009.2 |
| 20260509114007 | 50 | 115 | 0.0 | 1.0 | 0.00 | 0.00 | 0.00 | 51 | 1009.3 |
| 20260509113504 | 48 | 59 | 0.0 | 2.0 | 0.00 | 0.00 | 0.00 | 56 | 1009.5 |
| 20260509113004 | 46 | 38 | 0.0 | 2.0 | 0.00 | 0.00 | 0.00 | 60 | 1009.1 |
| 20260509112504 | 45 | 14 | 0.0 | 2.0 | 0.00 | 0.00 | 0.00 | 63 | 1009.3 |
| 20260509112004 | 44 | 3 | 0.0 | 1.0 | 0.00 | 0.00 | 0.00 | 66 | 1009.3 |
| 20260509111504 | 44 | 0 | 0.0 | 0.0 | 0.00 | 0.00 | 0.00 | 66 | 1009.2 |
| 20260509111004 | 43 | 0 | 0.0 | 0.0 | 0.00 | 0.00 | 0.00 | 70 | 1009.3 |
| 20260509110504 | 43 | 0 | 0.0 | 0.0 | 0.00 | 0.00 | 0.00 | 70 | 1009.3 |
| 20260509110007 | 42 | 0 | 0.0 | 0.0 | 0.00 | 0.00 | 0.00 | 69 | 1009.2 |
| 20260509105504 | 42 | 0 | 0.0 | 0.0 | 0.00 | 0.00 | 0.00 | 70 | 1009.2 |
| 20260509105007 | 41 | 0 | 0.0 | 0.0 | 0.00 | 0.00 | 0.00 | 71 | 1009.2 |
| 20260509104504 | 41 | 0 | 0.0 | 0.0 | 0.00 | 0.00 | 0.00 | 72 | 1009.2 |
| 20260509104007 | 41 | 0 | 0.0 | 0.0 | 0.00 | 0.00 | 0.00 | 71 | 1009.0 |
| 20260509103504 | 40 | 0 | 0.0 | 0.0 | 0.00 | 0.00 | 0.00 | 72 | 1009.0 |
| 20260509103004 | 40 | 0 | 0.0 | 0.0 | 0.00 | 0.00 | 0.00 | 74 | 1008.9 |
| 20260509102504 | 40 | 0 | 0.0 | 0.0 | 0.00 | 0.00 | 0.00 | 73 | 1008.8 |
| 20260509102004 | 40 | 0 | 0.0 | 0.0 | 0.00 | 0.00 | 0.00 | 72 | 1008.9 |
| 20260509101504 | 40 | 0 | 0.0 | 0.0 | 0.00 | 0.00 | 0.00 | 71 | 1008.6 |
| 20260509101004 | 40 | 0 | 0.0 | 0.0 | 0.00 | 0.00 | 0.00 | 71 | 1008.7 |
| 20260509100504 | 40 | 0 | 0.0 | 0.0 | 0.00 | 0.00 | 0.00 | 70 | 1008.6 |
| 20260509100005 | 40 | 0 | 0.0 | 0.0 | 0.00 | 0.00 | 0.00 | 69 | 1008.8 |
| 20260509095504 | 40 | 0 | 0.0 | 0.0 | 0.00 | 0.00 | 0.00 | 69 | 1008.8 |
| 20260509095004 | 40 | 0 | 0.0 | 0.0 | 0.00 | 0.00 | 0.00 | 71 | 1008.7 |
| 20260509094504 | 40 | 0 | 0.0 | 0.0 | 0.00 | 0.00 | 0.00 | 72 | 1008.8 |
| 20260509094004 | 40 | 0 | 0.0 | 0.0 | 0.00 | 0.00 | 0.00 | 74 | 1008.8 |
| 20260509093504 | 40 | 0 | 0.0 | 0.0 | 0.00 | 0.00 | 0.00 | 73 | 1008.9 |
| 20260509093004 | 40 | 3 | 0.0 | 1.0 | 0.00 | 0.00 | 0.00 | 72 | 1008.8 |
| 20260509092507 | 40 | 3 | 0.0 | 1.0 | 0.00 | 0.00 | 0.00 | 72 | 1008.8 |
| 20260509092004 | 41 | 3 | 0.0 | 2.0 | 0.00 | 0.00 | 0.00 | 72 | 1009.0 |
| 20260509091504 | 41 | 3 | 0.0 | 2.0 | 0.00 | 0.00 | 0.00 | 73 | 1008.9 |
| 20260509091004 | 41 | 3 | 0.0 | 1.0 | 0.00 | 0.00 | 0.00 | 73 | 1008.9 |
| 20260509090504 | 40 | 42 | 0.0 | 1.0 | 0.00 | 0.00 | 0.00 | 73 | 1009.0 |
| 20260509090004 | 40 | 81 | 0.0 | 1.0 | 0.00 | 0.00 | 0.00 | 73 | 1009.0 |
| 20260509085504 | 41 | 0 | 0.0 | 0.0 | 0.00 | 0.00 | 0.00 | 73 | 1009.1 |
| 20260509085004 | 41 | 0 | 0.0 | 0.0 | 0.00 | 0.00 | 0.00 | 73 | 1009.1 |
| 20260509084504 | 41 | 81 | 0.0 | 2.0 | 0.00 | 0.00 | 0.00 | 74 | 1009.2 |
| 20260509084004 | 41 | 75 | 0.0 | 2.0 | 0.00 | 0.00 | 0.00 | 74 | 1008.9 |
| 20260509083504 | 41 | 64 | 0.0 | 1.0 | 0.00 | 0.00 | 0.00 | 75 | 1009.3 |
| 20260509083007 | 41 | 64 | 0.0 | 1.0 | 0.00 | 0.00 | 0.00 | 74 | 1009.3 |
| 20260509082507 | 41 | 64 | 0.0 | 1.0 | 0.00 | 0.00 | 0.00 | 73 | 1009.3 |
| 20260509082007 | 41 | 64 | 0.0 | 1.0 | 0.00 | 0.00 | 0.00 | 73 | 1009.3 |
| 20260509081504 | 41 | 64 | 0.0 | 1.0 | 0.00 | 0.00 | 0.00 | 73 | 1009.4 |
| 20260509081004 | 42 | 39 | 0.0 | 1.0 | 0.00 | 0.00 | 0.00 | 72 | 1009.3 |
| 20260509080507 | 42 | 350 | 0.0 | 2.0 | 0.00 | 0.00 | 0.00 | 70 | 1009.3 |
| 20260509080004 | 42 | 220 | 0.0 | 4.0 | 0.00 | 0.00 | 0.00 | 69 | 1009.3 |
| 20260509075504 | 42 | 152 | 1.0 | 4.0 | 0.00 | 0.00 | 0.00 | 69 | 1009.3 |
| 20260509075004 | 42 | 95 | 1.0 | 2.0 | 0.00 | 0.00 | 0.00 | 69 | 1009.3 |
| 20260509074504 | 42 | 327 | 1.0 | 2.0 | 0.00 | 0.00 | 0.00 | 68 | 1009.5 |
| 20260509074004 | 42 | 277 | 1.0 | 2.0 | 0.00 | 0.00 | 0.00 | 70 | 1009.5 |
| 20260509073504 | 42 | 280 | 1.0 | 3.0 | 0.00 | 0.00 | 0.00 | 71 | 1009.6 |
| 20260509073004 | 42 | 293 | 1.0 | 3.0 | 0.00 | 0.00 | 0.00 | 72 | 1009.5 |
| 20260509072504 | 41 | 298 | 1.0 | 2.0 | 0.00 | 0.00 | 0.00 | 75 | 1009.5 |
| 20260509072007 | 41 | 289 | 1.0 | 2.0 | 0.00 | 0.00 | 0.00 | 75 | 1009.6 |
| 20260509071504 | 41 | 294 | 0.0 | 2.0 | 0.00 | 0.00 | 0.00 | 76 | 1009.5 |
| 20260509071004 | 42 | 298 | 1.0 | 2.0 | 0.00 | 0.00 | 0.00 | 75 | 1009.5 |
| 20260509070504 | 42 | 292 | 1.0 | 3.0 | 0.00 | 0.00 | 0.00 | 75 | 1009.5 |
| 20260509070004 | 42 | 291 | 1.0 | 3.0 | 0.00 | 0.00 | 0.00 | 75 | 1009.5 |
| 20260509065504 | 42 | 252 | 0.0 | 2.0 | 0.00 | 0.00 | 0.00 | 75 | 1009.6 |
| 20260509065004 | 41 | 202 | 0.0 | 1.0 | 0.00 | 0.00 | 0.00 | 76 | 1009.6 |
| 20260509064507 | 41 | 167 | 0.0 | 1.0 | 0.00 | 0.00 | 0.00 | 77 | 1009.7 |
| 20260509064004 | 41 | 165 | 0.0 | 1.0 | 0.00 | 0.00 | 0.00 | 79 | 1009.6 |
| 20260509063504 | 40 | 164 | 0.0 | 1.0 | 0.00 | 0.00 | 0.00 | 82 | 1009.6 |
| 20260509063004 | 40 | 164 | 0.0 | 1.0 | 0.00 | 0.00 | 0.00 | 84 | 1009.8 |
| 20260509062504 | 40 | 164 | 0.0 | 1.0 | 0.00 | 0.00 | 0.00 | 86 | 1009.8 |
| 20260509062004 | 39 | 164 | 0.0 | 1.0 | 0.00 | 0.00 | 0.00 | 87 | 1009.8 |
| 20260509061504 | 39 | 0 | 0.0 | 0.0 | 0.00 | 0.00 | 0.00 | 88 | 1009.7 |
| 20260509061004 | 39 | 0 | 0.0 | 0.0 | 0.00 | 0.00 | 0.00 | 88 | 1009.8 |
| 20260509060504 | 39 | 0 | 0.0 | 0.0 | 0.00 | 0.00 | 0.00 | 87 | 1010.0 |
| 20260509060005 | 39 | 0 | 0.0 | 0.0 | 0.00 | 0.00 | 0.00 | 87 | 1010.1 |
| 20260509055507 | 39 | 0 | 0.0 | 0.0 | 0.00 | 0.00 | 0.00 | 88 | 1009.9 |
| 20260509055004 | 39 | 0 | 0.0 | 0.0 | 0.00 | 0.00 | 0.00 | 89 | 1010.2 |
| 20260509054504 | 39 | 0 | 0.0 | 0.0 | 0.00 | 0.00 | 0.00 | 88 | 1010.3 |
| 20260509054007 | 39 | 0 | 0.0 | 0.0 | 0.00 | 0.00 | 0.00 | 89 | 1010.4 |
| 20260509053504 | 39 | 0 | 0.0 | 0.0 | 0.00 | 0.00 | 0.00 | 89 | 1010.4 |
| 20260509053004 | 39 | 0 | 0.0 | 0.0 | 0.00 | 0.00 | 0.00 | 90 | 1010.4 |
| 20260509052504 | 39 | 0 | 0.0 | 0.0 | 0.00 | 0.00 | 0.00 | 91 | 1010.6 |
| 20260509052004 | 38 | 0 | 0.0 | 0.0 | 0.00 | 0.00 | 0.00 | 92 | 1010.4 |
| 20260509051504 | 38 | 0 | 0.0 | 0.0 | 0.00 | 0.00 | 0.00 | 92 | 1010.3 |
| 20260509051007 | 38 | 0 | 0.0 | 0.0 | 0.00 | 0.00 | 0.00 | 91 | 1010.5 |
| 20260509050504 | 38 | 0 | 0.0 | 0.0 | 0.00 | 0.00 | 0.00 | 91 | 1010.3 |
| 20260509050004 | 39 | 0 | 0.0 | 0.0 | 0.00 | 0.00 | 0.00 | 91 | 1010.3 |
| 20260509045504 | 38 | 0 | 0.0 | 0.0 | 0.00 | 0.00 | 0.00 | 90 | 1010.3 |
| 20260509045004 | 39 | 0 | 0.0 | 0.0 | 0.00 | 0.00 | 0.00 | 90 | 1010.6 |
| 20260509044504 | 39 | 0 | 0.0 | 0.0 | 0.00 | 0.00 | 0.00 | 90 | 1010.5 |
| 20260509044004 | 39 | 0 | 0.0 | 0.0 | 0.00 | 0.00 | 0.00 | 90 | 1010.7 |
| 20260509043504 | 38 | 0 | 0.0 | 0.0 | 0.00 | 0.00 | 0.00 | 89 | 1010.7 |
| 20260509043004 | 38 | 0 | 0.0 | 0.0 | 0.00 | 0.00 | 0.00 | 89 | 1010.5 |
| 20260509042504 | 38 | 0 | 0.0 | 0.0 | 0.00 | 0.00 | 0.00 | 89 | 1010.5 |
| 20260509042007 | 38 | 0 | 0.0 | 0.0 | 0.00 | 0.00 | 0.00 | 89 | 1010.6 |
| 20260509041504 | 38 | 0 | 0.0 | 0.0 | 0.00 | 0.00 | 0.00 | 88 | 1010.7 |
| 20260509041004 | 39 | 0 | 0.0 | 0.0 | 0.00 | 0.00 | 0.00 | 87 | 1010.5 |
| 20260509040504 | 39 | 0 | 0.0 | 0.0 | 0.00 | 0.00 | 0.00 | 87 | 1010.6 |
| 20260509040005 | 39 | 0 | 0.0 | 0.0 | 0.00 | 0.00 | 0.00 | 87 | 1010.5 |
| 20260509035504 | 39 | 0 | 0.0 | 0.0 | 0.00 | 0.00 | 0.00 | 87 | 1010.6 |
| 20260509035007 | 39 | 0 | 0.0 | 0.0 | 0.00 | 0.00 | 0.00 | 86 | 1010.6 |
| 20260509034504 | 39 | 0 | 0.0 | 0.0 | 0.00 | 0.00 | 0.00 | 85 | 1010.6 |
| 20260509034004 | 40 | 0 | 0.0 | 0.0 | 0.00 | 0.00 | 0.00 | 84 | 1010.6 |
| 20260509033507 | 40 | 0 | 0.0 | 0.0 | 0.00 | 0.00 | 0.00 | 84 | 1010.5 |
| 20260509033004 | 40 | 0 | 0.0 | 0.0 | 0.00 | 0.00 | 0.00 | 84 | 1010.6 |
| 20260509032504 | 40 | 0 | 0.0 | 0.0 | 0.00 | 0.00 | 0.00 | 83 | 1010.5 |
| 20260509032004 | 40 | 0 | 0.0 | 0.0 | 0.00 | 0.00 | 0.00 | 83 | 1010.5 |
| 20260509031507 | 41 | 0 | 0.0 | 0.0 | 0.00 | 0.00 | 0.00 | 81 | 1010.5 |
| 20260509031004 | 41 | 0 | 0.0 | 0.0 | 0.00 | 0.00 | 0.00 | 80 | 1010.5 |
| 20260509030504 | 41 | 0 | 0.0 | 0.0 | 0.00 | 0.00 | 0.00 | 80 | 1010.6 |
| 20260509030004 | 42 | 164 | 0.0 | 1.0 | 0.00 | 0.00 | 0.00 | 78 | 1010.7 |
| 20260509025504 | 42 | 164 | 0.0 | 1.0 | 0.00 | 0.00 | 0.00 | 78 | 1010.7 |
| 20260509025004 | 42 | 164 | 0.0 | 1.0 | 0.00 | 0.00 | 0.00 | 78 | 1010.8 |
| 20260509024504 | 42 | 164 | 0.0 | 1.0 | 0.00 | 0.00 | 0.00 | 79 | 1010.7 |
| 20260509024007 | 43 | 164 | 0.0 | 1.0 | 0.00 | 0.00 | 0.00 | 79 | 1010.7 |
| 20260509023507 | 43 | 164 | 0.0 | 3.0 | 0.00 | 0.00 | 0.00 | 80 | 1010.8 |
| 20260509023004 | 42 | 164 | 0.0 | 3.0 | 0.00 | 0.00 | 0.00 | 80 | 1010.8 |
| 20260509022504 | 42 | 164 | 0.0 | 1.0 | 0.00 | 0.00 | 0.00 | 79 | 1011.0 |
| 20260509022004 | 42 | 164 | 0.0 | 1.0 | 0.00 | 0.00 | 0.00 | 79 | 1010.8 |
| 20260509021504 | 42 | 164 | 0.0 | 1.0 | 0.00 | 0.00 | 0.00 | 79 | 1010.8 |
| 20260509021004 | 42 | 164 | 0.0 | 1.0 | 0.00 | 0.00 | 0.00 | 78 | 1010.9 |
| 20260509020507 | 42 | 164 | 0.0 | 1.0 | 0.00 | 0.00 | 0.00 | 78 | 1011.0 |
| 20260509020004 | 42 | 164 | 0.0 | 1.0 | 0.00 | 0.00 | 0.00 | 78 | 1010.9 |
| 20260509015504 | 42 | 164 | 0.0 | 1.0 | 0.00 | 0.00 | 0.00 | 78 | 1010.9 |
| 20260509015007 | 42 | 0 | 0.0 | 0.0 | 0.00 | 0.00 | 0.00 | 78 | 1010.9 |
| 20260509014504 | 42 | 0 | 0.0 | 0.0 | 0.00 | 0.00 | 0.00 | 78 | 1010.7 |
| 20260509014004 | 42 | 0 | 0.0 | 0.0 | 0.00 | 0.00 | 0.00 | 77 | 1010.8 |
| 20260509013504 | 42 | 0 | 0.0 | 0.0 | 0.00 | 0.00 | 0.00 | 76 | 1010.8 |
| 20260509013004 | 42 | 0 | 0.0 | 0.0 | 0.00 | 0.00 | 0.00 | 76 | 1010.8 |
| 20260509012504 | 43 | 164 | 0.0 | 2.0 | 0.00 | 0.00 | 0.00 | 78 | 1010.6 |
| 20260509012004 | 43 | 164 | 0.0 | 2.0 | 0.00 | 0.00 | 0.00 | 77 | 1010.7 |
| 20260509011504 | 43 | 0 | 0.0 | 0.0 | 0.00 | 0.00 | 0.00 | 78 | 1010.5 |
| 20260509011004 | 43 | 0 | 0.0 | 0.0 | 0.00 | 0.00 | 0.00 | 77 | 1010.5 |
| 20260509010504 | 43 | 0 | 0.0 | 0.0 | 0.00 | 0.00 | 0.00 | 76 | 1010.5 |
| 20260509010004 | 43 | 0 | 0.0 | 0.0 | 0.00 | 0.00 | 0.00 | 76 | 1010.5 |
| 20260509005504 | 44 | 206 | 0.0 | 1.0 | 0.00 | 0.00 | 0.00 | 75 | 1010.3 |
| 20260509005004 | 44 | 206 | 0.0 | 1.0 | 0.00 | 0.00 | 0.00 | 73 | 1010.4 |
| 20260509004504 | 44 | 0 | 0.0 | 0.0 | 0.00 | 0.00 | 0.00 | 71 | 1010.2 |
| 20260509004004 | 44 | 0 | 0.0 | 0.0 | 0.00 | 0.00 | 0.00 | 69 | 1010.3 |
| 20260509003504 | 45 | 214 | 0.0 | 1.0 | 0.00 | 0.00 | 0.00 | 70 | 1010.2 |
| 20260509003004 | 45 | 215 | 0.0 | 1.0 | 0.00 | 0.00 | 0.00 | 71 | 1010.1 |
| 20260509002504 | 45 | 217 | 0.0 | 1.0 | 0.00 | 0.00 | 0.00 | 70 | 1010.2 |
| 20260509002004 | 45 | 219 | 0.0 | 1.0 | 0.00 | 0.00 | 0.00 | 68 | 1010.0 |
| 20260509001504 | 46 | 197 | 0.0 | 2.0 | 0.00 | 0.00 | 0.00 | 66 | 1010.4 |
| 20260509001004 | 46 | 198 | 0.0 | 2.0 | 0.00 | 0.00 | 0.00 | 65 | 1010.0 |
| 20260509000504 | 46 | 192 | 0.0 | 2.0 | 0.00 | 0.00 | 0.00 | 63 | 1010.2 |
| 20260509000004 | 47 | 206 | 1.0 | 4.0 | 0.00 | 0.00 | 0.00 | 63 | 1010.1 |
| 20260508235504 | 47 | 226 | 1.0 | 4.0 | 0.00 | 0.00 | 0.00 | 62 | 1010.1 |
| 20260508235004 | 47 | 203 | 0.0 | 2.0 | 0.00 | 0.00 | 0.00 | 61 | 1010.0 |
| 20260508234504 | 48 | 194 | 0.0 | 3.0 | 0.00 | 0.00 | 0.00 | 60 | 1010.0 |
| 20260508234004 | 48 | 169 | 1.0 | 4.0 | 0.00 | 0.00 | 0.00 | 60 | 1010.1 |
| 20260508233504 | 48 | 166 | 1.0 | 4.0 | 0.00 | 0.00 | 0.00 | 60 | 1009.8 |
| 20260508233004 | 48 | 183 | 1.0 | 4.0 | 0.00 | 0.00 | 0.00 | 60 | 1009.9 |
| 20260508232504 | 49 | 182 | 1.0 | 4.0 | 0.00 | 0.00 | 0.00 | 59 | 1009.9 |
| 20260508232004 | 49 | 142 | 1.0 | 4.0 | 0.00 | 0.00 | 0.00 | 59 | 1009.9 |
| 20260508231504 | 49 | 147 | 0.0 | 2.0 | 0.00 | 0.00 | 0.00 | 61 | 1009.9 |
| 20260508231004 | 49 | 179 | 1.0 | 3.0 | 0.00 | 0.00 | 0.00 | 62 | 1009.9 |
| 20260508230507 | 49 | 200 | 1.0 | 4.0 | 0.00 | 0.00 | 0.00 | 62 | 1009.9 |
| 20260508230004 | 49 | 191 | 1.0 | 6.0 | 0.00 | 0.00 | 0.00 | 63 | 1009.8 |
| 20260508225504 | 49 | 172 | 1.0 | 6.0 | 0.00 | 0.00 | 0.00 | 64 | 1010.1 |
| 20260508225004 | 49 | 135 | 1.0 | 3.0 | 0.00 | 0.00 | 0.00 | 64 | 1010.1 |
| 20260508224504 | 49 | 152 | 1.0 | 3.0 | 0.00 | 0.00 | 0.00 | 62 | 1010.1 |
| 20260508224004 | 50 | 186 | 1.0 | 3.0 | 0.00 | 0.00 | 0.00 | 61 | 1009.8 |
| 20260508223504 | 50 | 180 | 1.0 | 4.0 | 0.00 | 0.00 | 0.00 | 59 | 1010.1 |
| 20260508223004 | 50 | 155 | 1.0 | 4.0 | 0.00 | 0.00 | 0.00 | 59 | 1010.0 |
| 20260508222504 | 50 | 136 | 1.0 | 4.0 | 0.00 | 0.00 | 0.00 | 60 | 1010.0 |
| 20260508222004 | 50 | 170 | 1.0 | 4.0 | 0.00 | 0.00 | 0.00 | 59 | 1010.1 |
| 20260508221504 | 50 | 197 | 1.0 | 4.0 | 0.00 | 0.00 | 0.00 | 57 | 1010.2 |
| 20260508221004 | 50 | 163 | 1.0 | 3.0 | 0.00 | 0.00 | 0.00 | 58 | 1010.0 |
| 20260508220504 | 50 | 154 | 2.0 | 4.0 | 0.00 | 0.00 | 0.00 | 55 | 1010.0 |
| 20260508220004 | 51 | 161 | 1.0 | 4.0 | 0.00 | 0.00 | 0.00 | 52 | 1010.0 |
| 20260508215504 | 52 | 164 | 2.0 | 4.0 | 0.00 | 0.00 | 0.00 | 50 | 1010.0 |
| 20260508215004 | 52 | 185 | 2.0 | 4.0 | 0.00 | 0.00 | 0.00 | 49 | 1010.1 |
| 20260508214504 | 52 | 204 | 2.0 | 7.0 | 0.00 | 0.00 | 0.00 | 47 | 1010.1 |
| 20260508214004 | 52 | 198 | 2.0 | 7.0 | 0.00 | 0.00 | 0.00 | 48 | 1010.0 |
| 20260508213504 | 52 | 186 | 2.0 | 7.0 | 0.00 | 0.00 | 0.00 | 49 | 1010.1 |
| 20260508213004 | 52 | 165 | 2.0 | 7.0 | 0.00 | 0.00 | 0.00 | 50 | 1009.8 |